Location: Izdebno
(52.6670°N, 16.2170°E)
Time: 12:12:25
(UTC+01:00)

Transit 2A - All Passes

Search period start: 23 February 2024 00:00
Search period end: 04 March 2024 00:00
Orbit: 600 x 953 km, 66.7° (Epoch: 22 February)

Date Brightness Start Highest point End Pass type
(mag) Time Alt. Az. Time Alt. Az. Time Alt. Az.
23 Feb - 00:22:39 10° NW 00:25:03 14° N 00:27:30 10° NNE night (unlit)
23 Feb - 02:06:25 10° NNW 02:09:50 20° NNE 02:13:27 10° ENE visible
23 Feb - 03:49:09 10° NW 03:53:47 61° NE 03:58:51 10° SE visible
23 Feb - 05:32:34 10° WNW 05:36:38 28° WSW 05:41:00 10° S visible
23 Feb - 20:17:27 10° SSW 20:21:44 61° SE 20:26:03 10° NE visible
23 Feb - 22:01:18 10° W 22:05:07 29° NNW 22:09:02 10° NNE night (unlit)
23 Feb - 23:47:09 10° NW 23:49:38 15° N 23:52:14 10° NNE night (unlit)
24 Feb - 01:31:25 10° NNW 01:34:32 18° NNE 01:37:47 10° ENE visible
24 Feb - 03:14:11 10° NNW 03:18:41 46° NE 03:23:35 10° ESE visible
24 Feb - 04:57:19 10° NW 05:01:45 38° WSW 05:06:33 10° S visible
24 Feb - 19:42:43 10° S 19:46:48 41° ESE 19:50:56 10° NE visible
24 Feb - 21:25:53 10° WSW 21:29:55 37° NW 21:34:05 10° NNE visible
24 Feb - 23:11:34 10° NW 23:14:17 16° NNW 23:17:04 10° NNE night (unlit)
25 Feb - 00:56:21 10° NNW 00:59:10 16° NNE 01:02:07 10° NE night (unlit)
25 Feb - 02:39:14 10° NNW 02:43:32 36° NE 02:48:12 10° ESE visible
25 Feb - 04:22:10 10° NW 04:26:49 53° WSW 04:31:54 10° SSE visible
25 Feb - 19:08:11 10° S 19:11:56 29° ESE 19:15:42 10° ENE visible
25 Feb - 20:50:34 10° WSW 20:54:47 49° NW 20:59:07 10° NNE visible
25 Feb - 22:35:56 10° WNW 22:38:55 18° NNW 22:41:59 10° NNE night (unlit)
26 Feb - 00:21:12 10° NNW 00:23:48 15° N 00:26:29 10° NE night (unlit)
26 Feb - 02:04:16 10° NNW 02:08:20 29° NNE 02:12:42 10° E visible
26 Feb - 03:47:06 10° NW 03:51:50 74° SW 03:57:03 10° SSE visible
26 Feb - 05:31:42 10° WNW 05:34:16 14° WSW 05:36:58 10° SW visible
26 Feb - 18:33:56 10° SSE 18:37:06 20° ESE 18:40:17 10° ENE visible
26 Feb - 20:15:23 10° SW 20:19:42 68° NW 20:24:07 10° NE visible
26 Feb - 22:00:19 10° WNW 22:03:36 20° NNW 22:06:58 10° NNE visible
26 Feb - 23:45:57 10° NNW 23:48:24 14° N 23:50:56 10° NE night (unlit)
27 Feb - 01:29:19 10° NNW 01:33:06 24° NNE 01:37:07 10° E night (unlit)
27 Feb - 03:12:04 10° NW 03:16:49 82° NE 03:22:03 10° SE visible
27 Feb - 04:55:56 10° WNW 04:59:29 20° WSW 05:03:15 10° SSW visible
27 Feb - 18:00:11 10° SE 18:02:20 14° ESE 18:04:29 10° ENE visible
27 Feb - 19:40:19 10° SW 19:44:39 86° SE 19:49:06 10° NE visible
27 Feb - 21:24:45 10° W 21:28:18 24° NNW 21:32:00 10° NNE visible
27 Feb - 23:10:34 10° NW 23:13:01 14° N 23:15:32 10° NNE night (unlit)
28 Feb - 00:54:21 10° NNW 00:57:50 20° NNE 01:01:29 10° ENE night (unlit)
28 Feb - 02:37:05 10° NW 02:41:46 61° NE 02:46:54 10° SE visible
28 Feb - 04:20:30 10° WNW 04:24:38 28° WSW 04:29:05 10° S visible
28 Feb - 19:05:25 10° SSW 19:09:41 60° ESE 19:14:02 10° NE visible
28 Feb - 20:49:15 10° W 20:53:04 29° NNW 20:57:01 10° NNE visible
28 Feb - 22:35:04 10° NW 22:37:37 15° N 22:40:15 10° NNE visible
29 Feb - 00:19:20 10° NNW 00:22:30 18° NNE 00:25:49 10° ENE night (unlit)
29 Feb - 02:02:06 10° NNW 02:06:39 46° NE 02:11:37 10° ESE night (unlit)
29 Feb - 03:45:15 10° NW 03:49:44 39° WSW 03:54:37 10° S visible
29 Feb - 18:30:41 10° S 18:34:45 41° ESE 18:38:54 10° NE visible
29 Feb - 20:13:50 10° WSW 20:17:53 37° NW 20:22:03 10° NNE visible
29 Feb - 21:59:28 10° NW 22:02:14 16° NNW 22:05:04 10° NNE visible
29 Feb - 23:44:15 10° NNW 23:47:08 16° NNE 23:50:08 10° NE night (unlit)
01 Mar - 01:27:09 10° NNW 01:31:30 36° NE 01:36:13 10° ESE night (unlit)
01 Mar - 03:10:06 10° NW 03:14:48 54° WSW 03:19:57 10° SSE night (unlit)
01 Mar - 17:56:09 10° S 17:59:52 28° ESE 18:03:39 10° ENE daylight
01 Mar - 19:38:31 10° WSW 19:42:44 49° NW 19:47:05 10° NNE visible
01 Mar - 21:23:52 10° WNW 21:26:52 18° NNW 21:30:00 10° NNE visible
01 Mar - 23:09:06 10° NNW 23:11:46 15° N 23:14:31 10° NE visible
02 Mar - 00:52:12 10° NNW 00:56:18 29° NNE 01:00:44 10° E night (unlit)
02 Mar - 02:35:02 10° NW 02:39:49 75° SW 02:45:06 10° SSE night (unlit)
02 Mar - 04:19:34 10° WNW 04:22:16 15° WSW 04:25:04 10° SW night (unlit)
02 Mar - 17:21:54 10° SSE 17:25:03 20° ESE 17:28:13 10° ENE daylight
02 Mar - 19:03:19 10° SW 19:07:38 68° NW 19:12:05 10° NE visible
02 Mar - 20:48:14 10° WNW 20:51:33 20° NNW 20:54:58 10° NNE visible
02 Mar - 22:33:50 10° NNW 22:36:22 14° N 22:38:58 10° NE visible
03 Mar - 00:17:13 10° NNW 00:21:04 24° NNE 00:25:09 10° E night (unlit)
03 Mar - 02:00:00 10° NW 02:04:48 82° NE 02:10:05 10° SE night (unlit)
03 Mar - 03:43:50 10° WNW 03:47:27 21° WSW 03:51:19 10° SSW night (unlit)
03 Mar - 16:48:09 10° SE 16:50:17 13° ESE 16:52:25 10° ENE daylight
03 Mar - 18:28:16 10° SW 18:32:36 86° SE 18:37:04 10° NE visible
03 Mar - 20:12:40 10° W 20:16:15 24° NNW 20:19:58 10° NNE visible
03 Mar - 21:58:27 10° NW 22:00:57 14° N 22:03:33 10° NNE visible
03 Mar - 23:42:15 10° NNW 23:45:47 21° NNE 23:49:30 10° ENE visible
